PST,Max TemperatureF,Mean TemperatureF,Min TemperatureF,Max Dew PointF,MeanDew PointF,Min DewpointF,Max Humidity, Mean Humidity, Min Humidity, Max Sea Level PressureIn, Mean Sea Level PressureIn, Min Sea Level PressureIn, Max VisibilityMiles, Mean VisibilityMiles, Min VisibilityMiles, Max Wind SpeedMPH, Mean Wind SpeedMPH, Max Gust SpeedMPH,PrecipitationIn, CloudCover, Events, WindDirDegrees
2013-12-1,57,52,46,36,28,22,50,39,27,30.30,30.24,30.19,10,10,10,7,3,,0.00,0,,341
2013-12-2,54,46,39,36,28,15,89,53,22,30.19,30.01,29.83,10,10,6,13,6,,0.03,4,Rain,176
2013-12-3,39,30,21,39,29,10,100,93,63,29.87,29.77,29.70,10,4,0,22,10,33,0.37,6,Fog-Rain-Snow,182
2013-12-4,30,24,19,15,10,5,72,57,36,30.04,29.98,29.86,10,10,10,13,7,25,0.00,0,,73
2013-12-5,30,24,19,14,6,-1,72,49,30,30.13,30.08,30.01,10,10,10,7,3,,0.00,0,,95
2013-12-6,25,22,19,23,16,10,96,78,55,30.16,30.01,29.82,10,5,0,20,9,37,0.37,6,Fog-Snow,157
2013-12-7,24,19,14,23,17,9,96,90,77,30.22,29.89,29.72,10,4,0,16,8,25,0.61,7,Fog-Snow,251
2013-12-8,28,22,16,20,6,-8,78,54,25,30.29,30.24,30.19,10,10,10,13,3,26,0.00,0,,37
2013-12-9,45,33,21,16,5,-8,46,29,17,30.37,30.32,30.27,10,10,5,9,5,16,0.00,0,,31
2013-12-10,52,44,37,22,10,2,37,25,17,30.29,30.18,30.10,10,10,10,7,2,,0.00,0,,34
2013-12-11,51,45,39,19,13,6,37,29,18,30.20,30.16,30.10,10,10,10,7,5,,0.00,0,,62
2013-12-12,50,44,39,16,8,1,36,24,15,30.22,30.17,30.13,10,10,10,7,3,,0.00,0,,140
2013-12-13,50,44,37,22,12,0,43,29,18,30.27,30.22,30.17,10,10,10,10,4,22,0.00,0,,56
2013-12-14,57,50,44,21,10,0,30,20,13,30.33,30.29,30.24,10,10,10,8,5,,0.00,0,,53
2013-12-15,63,56,48,31,16,5,37,20,10,30.30,30.24,30.17,10,10,10,7,3,,0.00,0,,58
2013-12-16,70,64,57,25,14,7,24,16,11,30.18,30.15,30.09,10,10,10,8,5,,0.00,0,,55
2013-12-17,62,58,55,23,17,13,23,20,16,30.14,30.09,30.00,10,10,10,12,5,,0.00,0,,127
2013-12-18,55,47,39,31,23,14,73,39,19,29.99,29.82,29.61,10,10,10,9,4,,0.00,5,,158
2013-12-19,39,34,28,29,20,10,76,57,43,29.87,29.74,29.59,10,10,10,17,7,32,0.00,2,,59
2013-12-20,50,39,28,32,13,-10,60,36,13,29.97,29.92,29.86,10,10,10,13,8,26,0.00,0,,34
2013-12-21,53,48,42,33,25,19,68,46,28,30.06,29.97,29.90,10,10,10,12,5,21,0.00,0,,360
2013-12-22,57,50,43,31,26,16,53,41,32,30.29,30.18,30.04,10,10,10,12,5,24,0.00,0,,47
2013-12-23,53,50,46,31,25,16,54,39,24,30.37,30.31,30.24,10,10,10,8,4,,0.00,0,,30
2013-12-24,63,56,46,28,16,0,41,24,11,30.30,30.25,30.18,10,10,10,15,7,25,0.00,0,,41
2013-12-25,62,54,46,16,7,-4,26,16,8,30.26,30.23,30.21,10,10,10,9,6,,0.00,0,,36
2013-12-26,64,58,51,21,7,-5,23,14,8,30.23,30.19,30.16,10,10,10,7,3,,0.00,0,,22
2013-12-27,57,52,48,12,4,-3,18,14,10,30.21,30.15,30.06,10,10,10,9,4,,0.00,0,,138
2013-12-28,54,48,41,15,9,3,35,22,16,30.11,30.06,30.02,10,10,10,21,7,41,0.00,0,,65
2013-12-29,60,51,42,29,10,-7,43,21,10,30.16,30.12,30.06,10,10,10,18,8,36,0.00,0,,48
2013-12-30,54,50,46,18,11,1,29,21,14,30.23,30.19,30.14,10,10,10,9,4,,0.00,0,,131
2013-12-31,55,50,46,21,12,5,32,22,18,30.21,30.17,30.13,10,10,10,9,5,,0.00,1,,113